Location: Ripley
(48.3812°N, 115.4473°W)
Time: 05:05:43
(UTC+00:00)

O/OREOS (USA 219) - Pass Details

Date: 28 June 2022
Orbit: 621 x 646 km, 72.0° (Epoch: 22 May)

Event Time Altitude Azimuth Distance (km) Brightness Sun altitude
Rises 07:45:04 0° 339° (NNW) 2,962 ? -18.3°
Reaches altitude 10° 07:47:32 10° 348° (NNW) 2,051 ? -18.3°
Maximum altitude 07:51:46 35° 55° (NE) 1,056 ? -18.3°
Enters shadow 07:55:38 12° 119° (ESE) 1,923 ? -18.3°
